FW9422 Weather Reports


time (UTC)temp
C
wind
direction
speed
KPH
gust
KPH
rain 1hr
cm
rain 24hr
cm
rain mn
cm
humidity
%
barometer
mb
20260505234058 17 0 0.0 8.0 0.00 0.00 0.00 67 1015.5
20260505233558 17 0 1.6 8.0 0.00 0.00 0.00 66 1015.6
20260505233058 17 304 1.6 6.4 0.00 0.00 0.00 66 1015.6
20260505232558 17 281 0.0 3.2 0.00 0.00 0.00 65 1015.6
20260505232058 17 0 0.0 1.6 0.00 0.00 0.00 65 1015.6
20260505231600 17 0 0.0 1.6 0.00 0.00 0.00 65 1015.7
20260505231057 17 0 0.0 4.8 0.00 0.00 0.00 66 1015.7
20260505230558 17 86 0.0 4.8 0.00 0.00 0.00 66 1015.6
20260505225600 17 5 0.0 4.8 0.00 0.00 0.00 66 1015.6
20260505225058 17 0 0.0 3.2 0.00 0.00 0.00 67 1015.7
20260505224557 17 0 0.0 4.8 0.00 0.00 0.00 67 1015.7
20260505224102 17 5 0.0 6.4 0.00 0.00 0.00 67 1015.7
20260505223557 17 328 1.6 8.0 0.00 0.00 0.00 68 1015.7
20260505223101 17 0 1.6 8.0 0.00 0.00 0.00 67 1015.7
20260505222558 17 0 0.0 6.4 0.00 0.00 0.00 67 1015.8
20260505222058 17 323 1.6 6.4 0.00 0.00 0.00 68 1015.9
20260505221602 16 0 0.0 6.4 0.00 0.00 0.00 68 1015.9
20260505221057 16 5 0.0 6.4 0.00 0.00 0.00 68 1016.0
20260505220558 16 0 1.6 8.0 0.00 0.00 0.00 68 1016.0
20260505220108 16 345 1.6 8.0 0.00 0.00 0.00 68 1016.0
20260505215557 16 0 3.2 8.0 0.00 0.00 0.00 68 1016.1
20260505215057 16 348 0.0 8.0 0.00 0.00 0.00 69 1016.1
20260505214610 16 0 1.6 8.0 0.00 0.00 0.00 68 1016.0
20260505214057 16 0 1.6 6.4 0.00 0.00 0.00 68 1016.1
20260505213600 16 331 1.6 6.4 0.00 0.00 0.00 68 1016.1
20260505213101 16 329 1.6 6.4 0.00 0.00 0.00 68 1016.2
20260505212557 16 333 1.6 11.3 0.00 0.00 0.00 68 1016.3
20260505212104 16 327 3.2 11.3 0.00 0.00 0.00 68 1016.2
20260505211646 17 360 1.6 9.7 0.00 0.00 0.00 68 1016.2
20260505211101 17 9 1.6 12.9 0.00 0.00 0.00 67 1016.2
20260505210556 17 306 4.8 12.9 0.00 0.00 0.00 66 1016.3
20260505210059 17 9 1.6 12.9 0.00 0.00 0.00 65 1016.2
20260505205558 17 0 1.6 8.0 0.00 0.00 0.00 65 1016.1
20260505205058 17 0 0.0 6.4 0.00 0.00 0.00 65 1016.1
20260505204613 17 245 0.0 6.4 0.00 0.00 0.00 67 1016.2
20260505204057 17 0 0.0 6.4 0.00 0.00 0.00 67 1016.1
20260505203557 17 264 0.0 6.4 0.00 0.00 0.00 68 1016.1
20260505203058 17 225 0.0 6.4 0.00 0.00 0.00 69 1016.1
20260505202556 17 177 1.6 6.4 0.00 0.00 0.00 69 1016.1
20260505202056 17 260 1.6 6.4 0.00 0.00 0.00 69 1016.1
20260505201558 17 300 0.0 3.2 0.00 0.00 0.00 69 1016.2
20260505201057 16 0 0.0 4.8 0.00 0.00 0.00 69 1016.2
20260505200558 16 0 0.0 4.8 0.00 0.00 0.00 69 1016.3
20260505200056 16 0 1.6 4.8 0.00 0.00 0.00 69 1016.4
20260505195558 16 0 1.6 4.8 0.00 0.00 0.00 69 1016.4
20260505195057 16 0 0.0 6.4 0.00 0.00 0.00 69 1016.4
20260505194557 16 0 1.6 6.4 0.00 0.00 0.00 69 1016.4
20260505194058 16 0 1.6 6.4 0.00 0.00 0.00 69 1016.4
20260505193557 16 288 0.0 4.8 0.00 0.00 0.00 69 1016.4
20260505193056 16 298 1.6 6.4 0.00 0.00 0.00 69 1016.5
20260505192600 16 283 1.6 6.4 0.00 0.00 0.00 69 1016.5
20260505192057 16 242 0.0 4.8 0.00 0.00 0.00 70 1016.4
20260505191604 16 0 0.0 8.0 0.00 0.00 0.00 70 1016.4
20260505191058 16 0 0.0 8.0 0.00 0.00 0.00 70 1016.4
20260505190601 16 0 1.6 8.0 0.00 0.00 0.00 71 1016.4
20260505190103 16 0 1.6 6.4 0.00 0.00 0.00 71 1016.2
20260505185557 16 0 0.0 4.8 0.00 0.00 0.00 72 1016.3
20260505185058 15 0 1.6 6.4 0.00 0.00 0.00 72 1016.2
20260505184556 15 296 1.6 6.4 0.00 0.00 0.00 72 1016.3
20260505184058 15 0 1.6 6.4 0.00 0.00 0.00 72 1016.3
20260505183557 15 0 0.0 6.4 0.00 0.00 0.00 73 1016.3
20260505183055 15 224 0.0 6.4 0.00 0.00 0.00 74 1016.4
20260505182557 15 0 0.0 1.6 0.00 0.00 0.00 74 1016.3
20260505182057 14 0 0.0 3.2 0.00 0.00 0.00 74 1016.3
20260505181640 14 0 0.0 3.2 0.00 0.00 0.00 74 1016.3
20260505181057 14 270 0.0 4.8 0.00 0.00 0.00 74 1016.4
20260505180557 14 0 0.0 6.4 0.00 0.00 0.00 74 1016.4
20260505180106 14 5 0.0 6.4 0.00 0.00 0.00 73 1016.3
20260505175554 14 0 1.6 6.4 0.00 0.00 0.00 73 1016.2
20260505175057 14 335 0.0 6.4 0.00 0.00 0.00 73 1016.2
20260505174558 14 360 0.0 6.4 0.00 0.00 0.00 72 1016.2
20260505174058 14 316 0.0 6.4 0.00 0.00 0.00 72 1016.1
20260505173558 14 0 1.6 6.4 0.00 0.00 0.00 72 1016.1
20260505173058 14 0 0.0 6.4 0.00 0.00 0.00 72 1016.0
20260505172558 14 0 0.0 1.6 0.00 0.00 0.00 72 1015.9
20260505172057 14 0 0.0 1.6 0.00 0.00 0.00 73 1015.8
20260505171603 14 0 0.0 3.2 0.00 0.00 0.00 73 1015.9
20260505171057 13 0 0.0 3.2 0.00 0.00 0.00 73 1015.8
20260505170557 13 0 0.0 3.2 0.00 0.00 0.00 73 1015.8
20260505170056 13 0 0.0 3.2 0.00 0.00 0.00 73 1015.8
20260505165557 13 0 0.0 3.2 0.00 0.00 0.00 73 1015.8
20260505165058 13 0 0.0 3.2 0.00 0.00 0.00 73 1015.8
20260505164559 13 0 0.0 1.6 0.00 0.00 0.00 74 1015.8
20260505164058 13 0 0.0 1.6 0.00 0.00 0.00 75 1015.7
20260505163601 13 0 0.0 3.2 0.00 0.00 0.00 75 1015.7
20260505163055 13 0 0.0 3.2 0.00 0.00 0.00 75 1015.7
20260505162557 13 0 0.0 3.2 0.00 0.00 0.00 76 1015.7
20260505162057 13 0 0.0 3.2 0.00 0.00 0.00 76 1015.7
20260505161556 13 0 0.0 3.2 0.00 0.00 0.00 77 1015.7
20260505161057 13 161 0.0 3.2 0.00 0.00 0.00 77 1015.6
20260505160557 13 0 0.0 3.2 0.00 0.00 0.00 78 1015.6
20260505153100 12 0 0.0 3.2 0.00 0.00 0.00 81 1015.4
20260505152556 12 0 0.0 3.2 0.00 0.00 0.00 81 1015.4
20260505152058 12 0 0.0 4.8 0.00 0.00 0.00 82 1015.5
20260505151602 12 162 0.0 4.8 0.00 0.00 0.00 82 1015.3
20260505151101 12 0 0.0 3.2 0.00 0.00 0.00 82 1015.2
20260505150557 12 0 0.0 3.2 0.00 0.00 0.00 83 1015.2
20260505140557 11 0 0.0 0.0 0.00 0.00 0.00 85 1014.9
20260505140108 11 0 0.0 0.0 0.00 0.00 0.00 85 1014.9
20260505124557 11 0 0.0 0.0 0.00 0.00 0.00 84 1014.7
20260505124058 11 0 0.0 0.0 0.00 0.00 0.00 84 1014.7
20260505123557 11 0 0.0 0.0 0.00 0.00 0.00 83 1014.9
20260505123100 11 0 0.0 0.0 0.00 0.00 0.00 83 1014.9
20260505122555 11 0 0.0 0.0 0.00 0.00 0.00 83 1014.8
20260505122059 11 0 0.0 0.0 0.00 0.00 0.00 83 1014.8
20260505121557 11 0 0.0 0.0 0.00 0.00 0.00 83 1014.9
20260505121058 11 0 0.0 0.0 0.00 0.00 0.00 82 1014.8
20260505120557 11 0 0.0 0.0 0.00 0.00 0.00 82 1014.9
20260505120126 11 0 0.0 0.0 0.00 0.00 0.00 82 1014.8
20260505115558 11 0 0.0 0.0 0.00 0.00 0.00 82 1014.8
20260505115058 11 0 0.0 0.0 0.00 0.00 0.00 82 1014.9
20260505114558 11 0 0.0 0.0 0.00 0.00 0.00 81 1014.8
20260505114058 11 0 0.0 0.0 0.00 0.00 0.00 81 1014.9
20260505113600 11 0 0.0 0.0 0.00 0.00 0.00 81 1015.0
20260505113058 11 0 0.0 0.0 0.00 0.00 0.00 81 1014.9
20260505112557 11 0 0.0 0.0 0.00 0.00 0.00 80 1014.9
20260505112057 11 0 0.0 0.0 0.00 0.00 0.00 80 1014.9
20260505111557 11 0 0.0 1.6 0.00 0.00 0.00 80 1014.9
20260505111058 11 0 0.0 1.6 0.00 0.00 0.00 79 1014.8
20260505110558 11 0 0.0 1.6 0.00 0.00 0.00 79 1014.9
20260505110113 11 0 0.0 0.0 0.00 0.00 0.00 78 1014.8
20260505102057 11 0 0.0 3.2 0.00 0.00 0.00 77 1014.7
20260505101603 11 279 0.0 3.2 0.00 0.00 0.00 77 1014.9
20260505101058 11 0 0.0 1.6 0.00 0.00 0.00 77 1014.9
20260505100558 11 0 0.0 1.6 0.00 0.00 0.00 77 1015.0
20260505100100 12 0 0.0 3.2 0.00 0.00 0.00 76 1015.0
20260505095558 12 0 0.0 3.2 0.00 0.00 0.00 76 1015.1
20260505095100 12 288 0.0 1.6 0.00 0.00 0.00 76 1015.0
20260505094557 12 0 0.0 1.6 0.00 0.00 0.00 75 1015.0
20260505094058 12 0 0.0 1.6 0.00 0.00 0.00 75 1015.1
20260505093558 12 0 0.0 1.6 0.00 0.00 0.00 75 1015.1
20260505093055 12 0 0.0 4.8 0.00 0.00 0.00 74 1015.2
20260505092558 12 0 0.0 4.8 0.00 0.00 0.00 74 1015.2
20260505092058 12 0 0.0 6.4 0.00 0.00 0.00 73 1015.1
20260505091559 12 0 0.0 6.4 0.00 0.00 0.00 73 1015.1
20260505091057 12 0 0.0 6.4 0.00 0.00 0.00 73 1015.1
20260505090557 12 0 0.0 6.4 0.00 0.00 0.00 72 1015.2
20260505090100 12 0 1.6 6.4 0.00 0.00 0.00 72 1015.3
20260505085558 12 187 0.0 6.4 0.00 0.00 0.00 72 1015.3
20260505085057 12 0 0.0 9.7 0.00 0.00 0.00 72 1015.3
20260505084603 12 254 0.0 9.7 0.00 0.00 0.00 72 1015.4
20260505084057 12 0 0.0 4.8 0.00 0.00 0.00 72 1015.5
20260505083557 12 0 0.0 6.4 0.00 0.00 0.00 72 1015.5
20260505083109 12 263 1.6 6.4 0.00 0.00 0.00 71 1015.7
20260505082605 12 275 0.0 12.9 0.00 0.00 0.00 71 1015.7
20260505082058 12 323 0.0 12.9 0.00 0.00 0.00 71 1015.7
20260505081601 12 274 3.2 12.9 0.00 0.00 0.00 71 1015.5
20260505081058 12 309 4.8 11.3 0.00 0.00 0.00 71 1015.6
20260505080557 12 236 1.6 12.9 0.00 0.00 0.00 71 1015.6
20260505080105 12 0 3.2 12.9 0.00 0.00 0.00 72 1015.6
20260505075557 12 298 0.0 11.3 0.00 0.00 0.00 72 1015.6
20260505075100 12 325 4.8 16.1 0.00 0.00 0.00 72 1015.7
20260505074555 12 241 3.2 16.1 0.00 0.00 0.00 72 1015.6
20260505074057 12 277 3.2 16.1 0.00 0.00 0.00 72 1015.6
20260505073559 12 263 3.2 12.9 0.00 0.00 0.00 73 1015.7
20260505073102 12 294 3.2 12.9 0.00 0.00 0.00 74 1015.7
20260505072557 12 293 4.8 12.9 0.00 0.00 0.00 74 1015.6
20260505072058 12 328 1.6 11.3 0.00 0.00 0.00 75 1015.6
20260505071557 12 0 0.0 6.4 0.00 0.00 0.00 75 1015.6
20260505071058 12 0 1.6 6.4 0.00 0.00 0.00 75 1015.5
20260505070558 12 0 1.6 6.4 0.00 0.00 0.00 76 1015.4
20260505070107 12 242 0.0 6.4 0.00 0.00 0.00 76 1015.4
20260505065558 12 301 1.6 6.4 0.00 0.00 0.00 77 1015.4
20260505065058 12 302 0.0 6.4 0.00 0.00 0.00 78 1015.4
20260505064639 12 292 0.0 6.4 0.00 0.00 0.00 79 1015.4
20260505064054 12 0 0.0 4.8 0.00 0.00 0.00 79 1015.4
20260505063554 12 0 0.0 4.8 0.00 0.00 0.00 79 1015.5
20260505063104 12 0 0.0 4.8 0.00 0.00 0.00 79 1015.4
20260505062555 12 0 0.0 4.8 0.00 0.00 0.00 79 1015.5
20260505062057 12 0 0.0 4.8 0.00 0.00 0.00 79 1015.4
20260505061606 13 0 0.0 6.4 0.00 0.00 0.00 79 1015.2
20260505061058 13 0 0.0 9.7 0.00 0.00 0.00 79 1015.3
20260505060606 13 285 3.2 9.7 0.00 0.00 0.00 79 1015.3
20260505060101 13 283 0.0 8.0 0.00 0.00 0.00 79 1015.2
20260505055558 13 264 0.0 11.3 0.00 0.00 0.00 78 1015.3
20260505055101 13 265 1.6 11.3 0.00 0.00 0.00 78 1015.4
20260505054556 13 280 0.0 6.4 0.00 0.00 0.00 78 1015.4
20260505054058 13 0 0.0 11.3 0.00 0.00 0.00 78 1015.4
20260505053557 13 0 1.6 11.3 0.00 0.00 0.00 78 1015.5
20260505053114 13 243 1.6 8.0 0.00 0.00 0.00 77 1015.4
20260505052557 13 0 1.6 8.0 0.00 0.00 0.00 77 1015.6
20260505052058 13 250 0.0 9.7 0.00 0.00 0.00 77 1015.8
20260505051601 13 323 3.2 9.7 0.00 0.00 0.00 77 1015.7
20260505051058 13 334 0.0 9.7 0.00 0.00 0.00 76 1015.8
20260505050558 13 316 1.6 9.7 0.00 0.00 0.00 76 1015.9
20260505050111 13 247 0.0 11.3 0.00 0.00 0.00 76 1015.8
20260505041608 13 340 0.0 11.3 0.00 0.00 0.00 74 1015.1
20260505041057 13 295 0.0 12.9 0.00 0.00 0.00 73 1015.1
20260505040558 14 309 1.6 12.9 0.00 0.00 0.00 73 1015.1
20260505040106 14 287 3.2 12.9 0.00 0.00 0.00 72 1014.9
20260505035559 14 325 3.2 11.3 0.00 0.00 0.00 71 1014.9
20260505035058 14 278 3.2 11.3 0.00 0.00 0.00 71 1014.9
20260505034610 14 320 0.0 11.3 0.00 0.00 0.00 70 1014.9
20260505034058 14 256 1.6 11.3 0.00 0.00 0.00 69 1014.8
20260505033558 15 306 1.6 12.9 0.00 0.00 0.00 69 1014.7
20260505033057 15 304 3.2 12.9 0.00 0.00 0.00 68 1014.5
20260505032558 15 0 1.6 11.3 0.00 0.00 0.00 68 1014.4
20260505032057 15 0 3.2 11.3 0.00 0.00 0.00 68 1014.4
20260505031557 15 0 1.6 12.9 0.00 0.00 0.00 67 1014.4
20260505031058 15 312 1.6 12.9 0.00 0.00 0.00 67 1014.4
20260505030556 15 296 1.6 9.7 0.00 0.00 0.00 67 1014.4
20260505030114 15 300 1.6 11.3 0.00 0.00 0.00 66 1014.4
20260505025558 15 331 3.2 11.3 0.00 0.00 0.00 65 1014.4
20260505025058 15 252 1.6 12.9 0.00 0.00 0.00 65 1014.5
20260505024611 15 0 3.2 12.9 0.00 0.00 0.00 65 1014.5
20260505024058 15 295 4.8 12.9 0.00 0.00 0.00 65 1014.5
20260505023558 15 278 1.6 12.9 0.00 0.00 0.00 64 1014.4
20260505023058 15 278 3.2 12.9 0.00 0.00 0.00 63 1014.5
20260505022601 15 332 1.6 9.7 0.00 0.00 0.00 62 1014.5
20260505022058 15 0 0.0 11.3 0.00 0.00 0.00 61 1014.3
20260505021557 16 310 3.2 11.3 0.00 0.00 0.00 60 1014.3
20260505021057 16 230 3.2 11.3 0.00 0.00 0.00 60 1014.5
20260505020557 16 243 1.6 12.9 0.00 0.00 0.00 60 1014.4
20260505020107 16 0 3.2 14.5 0.00 0.00 0.00 59 1014.3
20260505015557 16 311 4.8 16.1 0.00 0.00 0.00 58 1014.4
20260505015100 16 307 4.8 16.1 0.00 0.00 0.00 59 1014.3
20260505014558 16 329 6.4 16.1 0.00 0.00 0.00 59 1014.3
20260505014058 16 257 6.4 16.1 0.00 0.00 0.00 59 1014.4
20260505013558 16 269 4.8 12.9 0.00 0.00 0.00 59 1014.4
20260505013110 16 336 4.8 12.9 0.00 0.00 0.00 59 1014.3
20260505012600 16 322 4.8 16.1 0.00 0.00 0.00 59 1014.4
20260505012058 16 343 1.6 16.1 0.00 0.00 0.00 59 1014.5
20260505011602 17 331 4.8 16.1 0.00 0.00 0.00 60 1014.6
20260505011058 17 336 4.8 17.7 0.00 0.00 0.00 61 1014.6
20260505010557 17 0 1.6 17.7 0.00 0.00 0.00 61 1014.5
20260505010111 17 346 4.8 17.7 0.00 0.00 0.00 61 1014.5
20260505005559 17 346 6.4 14.5 0.00 0.00 0.00 61 1014.7
20260505005059 17 340 3.2 14.5 0.00 0.00 0.00 61 1014.7
20260505004624 17 320 4.8 17.7 0.00 0.00 0.00 61 1014.7
20260505004057 17 0 4.8 17.7 0.00 0.00 0.00 61 1014.7
20260505003600 17 352 3.2 12.9 0.00 0.00 0.00 62 1014.7
20260505003100 17 265 4.8 12.9 0.00 0.00 0.00 63 1014.7
20260505002600 17 292 3.2 16.1 0.00 0.00 0.00 64 1014.8
20260505002058 16 0 4.8 16.1 0.00 0.00 0.00 65 1014.8
20260505001557 16 295 4.8 11.3 0.00 0.00 0.00 65 1014.9
20260505001058 16 321 3.2 9.7 0.00 0.00 0.00 65 1014.7
20260505000559 16 238 3.2 9.7 0.00 0.00 0.00 65 1014.7
20260505000112 16 318 3.2 11.3 0.00 0.00 0.00 65 1014.6
20260504235558 16 0 1.6 11.3 0.00 0.00 0.00 65 1014.7
20260504235058 16 275 3.2 11.3 0.00 0.00 0.00 64 1014.7
20260504234556 16 317 1.6 12.9 0.00 0.00 0.00 64 1014.7